GW5633 Weather Reports


time (UTC)temp
C
wind
direction
speed
KPH
gust
KPH
rain 1hr
cm
rain 24hr
cm
rain mn
cm
humidity
%
barometer
mb
20260506231423 16 202 0.0 0.0 0.00 0.74 0.74 94 1007.5
20260506230920 16 188 0.0 0.0 0.00 0.74 0.74 94 1007.6
20260506230416 16 316 0.0 0.0 0.00 0.74 0.74 94 1007.5
20260506225913 16 233 0.0 0.0 0.00 0.74 0.74 94 1007.6
20260506225411 16 274 0.0 0.0 0.00 0.74 0.74 94 1007.4
20260506224907 16 276 0.0 0.0 0.00 0.74 0.74 94 1007.4
20260506224405 16 258 0.0 0.0 0.00 0.74 0.74 94 1007.5
20260506223900 16 218 1.6 3.2 0.00 0.74 0.74 94 1007.4
20260506223356 16 193 0.0 0.0 0.00 0.74 0.74 94 1007.3
20260506222853 16 239 1.6 3.2 0.00 0.74 0.74 94 1007.5
20260506222349 16 208 0.0 0.0 0.00 0.74 0.74 95 1007.4
20260506221847 16 225 0.0 1.6 0.00 0.74 0.74 95 1007.3
20260506221344 16 154 0.0 0.0 0.00 0.74 0.74 95 1007.2
20260506220842 16 175 0.0 1.6 0.00 0.74 0.74 95 1007.2
20260506220337 16 265 0.0 1.6 0.00 0.74 0.74 95 1007.4
20260506215834 16 161 0.0 0.0 0.00 0.74 0.74 95 1007.2
20260506215330 16 234 0.0 0.0 0.00 0.74 0.74 95 1007.0
20260506214826 15 214 0.0 0.0 0.00 0.74 0.74 95 1007.2
20260506214322 15 222 4.8 8.0 0.00 0.74 0.74 95 1007.0
20260506213821 15 231 0.0 0.0 0.00 0.74 0.74 95 1007.1
20260506213318 15 255 1.6 3.2 0.00 0.74 0.74 95 1006.9
20260506212815 15 215 0.0 0.0 0.00 0.74 0.74 95 1007.0
20260506212311 15 206 1.6 8.0 0.00 0.74 0.74 95 1006.9
20260506211806 15 187 0.0 0.0 0.00 0.74 0.74 95 1007.0
20260506211302 15 177 0.0 3.2 0.00 0.74 0.74 95 1007.0
20260506210800 15 212 1.6 3.2 0.00 0.74 0.74 95 1007.0
20260506210256 15 236 3.2 4.8 0.00 0.74 0.74 95 1006.9
20260506205754 15 199 0.0 0.0 0.00 0.74 0.74 96 1006.9
20260506205249 15 268 0.0 1.6 0.00 0.74 0.74 96 1006.8
20260506204746 15 214 0.0 0.0 0.00 0.74 0.74 96 1006.7
20260506204244 15 233 1.6 1.6 0.00 0.74 0.74 96 1006.7
20260506203742 15 173 0.0 0.0 0.00 0.74 0.74 96 1006.7
20260506203238 15 200 4.8 9.7 0.00 0.74 0.74 96 1006.7
20260506202736 15 250 1.6 4.8 0.00 0.74 0.74 96 1006.7
20260506202232 15 170 0.0 0.0 0.00 0.74 0.74 96 1006.7
20260506201729 15 237 6.4 11.3 0.00 0.74 0.74 96 1006.7
20260506201226 15 177 0.0 0.0 0.00 0.74 0.74 96 1006.5
20260506200723 15 239 1.6 4.8 0.00 0.74 0.74 96 1006.7
20260506200219 15 185 0.0 0.0 0.00 0.74 0.74 96 1006.8
20260506195716 15 196 0.0 0.0 0.00 0.74 0.74 96 1006.6
20260506195213 15 256 1.6 4.8 0.00 0.74 0.74 96 1006.9
20260506194710 15 255 8.0 12.9 0.00 0.74 0.74 96 1007.1
20260506194206 15 194 4.8 9.7 0.00 0.74 0.74 96 1007.1
20260506193704 15 207 0.0 0.0 0.00 0.74 0.74 96 1007.1
20260506193201 15 251 3.2 4.8 0.00 0.74 0.74 96 1007.1
20260506192657 15 226 1.6 4.8 0.18 0.74 0.74 96 1007.2
20260506192154 15 199 0.0 1.6 0.18 0.74 0.74 96 1007.3
20260506191651 15 202 0.0 0.0 0.00 0.71 0.71 96 1007.5
20260506191147 15 210 0.0 1.6 0.13 0.71 0.71 96 1007.8
20260506190644 15 192 3.2 4.8 0.13 0.71 0.71 96 1007.5
20260506190141 15 209 0.0 0.0 0.13 0.71 0.71 95 1007.7
20260506185638 15 213 0.0 1.6 0.18 0.69 0.69 95 1007.6
20260506185134 15 256 1.6 3.2 0.00 0.66 0.66 95 1007.6
20260506184632 15 190 4.8 4.8 0.13 0.66 0.66 95 1007.5
20260506184129 15 187 9.7 14.5 0.30 0.66 0.66 95 1007.7
20260506183625 15 231 0.0 0.0 0.36 0.64 0.64 95 1007.6
20260506183121 15 208 8.0 16.1 0.48 0.61 0.61 94 1007.6
20260506182619 15 169 0.0 0.0 0.30 0.58 0.58 94 1007.8
20260506182116 15 216 0.0 0.0 0.13 0.53 0.53 94 1007.6
20260506181614 15 228 0.0 3.2 0.30 0.53 0.53 94 1007.5
20260506181111 15 189 0.0 0.0 0.30 0.51 0.51 93 1007.8
20260506180608 15 180 0.0 0.0 0.13 0.48 0.48 93 1007.9
20260506180104 15 230 0.0 0.0 0.13 0.48 0.48 93 1007.8
20260506175600 15 213 1.6 3.2 0.18 0.46 0.46 92 1007.8
20260506175056 15 208 1.6 3.2 0.18 0.46 0.46 92 1007.9
20260506174555 15 206 4.8 8.0 0.00 0.43 0.43 92 1007.8
20260506174051 15 192 1.6 3.2 0.00 0.43 0.43 91 1008.0
20260506173549 15 200 4.8 4.8 0.00 0.43 0.43 91 1008.2
20260506173046 15 214 4.8 8.0 0.00 0.43 0.43 91 1007.8
20260506172543 15 206 11.3 14.5 0.00 0.43 0.43 91 1008.0
20260506172039 15 167 8.0 16.1 0.00 0.43 0.43 91 1007.8
20260506171537 15 243 6.4 12.9 0.13 0.43 0.43 91 1008.1
20260506171034 15 189 12.9 16.1 0.13 0.43 0.43 91 1007.9
20260506170532 15 192 9.7 12.9 0.00 0.41 0.41 92 1007.8
20260506170029 15 211 8.0 11.3 0.00 0.41 0.41 91 1008.0
20260506165527 15 205 4.8 14.5 0.18 0.41 0.41 91 1008.0
20260506165023 15 189 14.5 20.9 0.18 0.41 0.41 92 1008.0
20260506164520 15 245 6.4 8.0 0.18 0.41 0.41 92 1007.8
20260506164012 15 184 4.8 9.7 0.13 0.38 0.38 92 1007.9
20260506163508 15 175 1.6 3.2 0.13 0.38 0.38 91 1007.8
20260506163004 15 204 3.2 3.2 0.18 0.36 0.36 91 1007.8
20260506162500 15 174 1.6 3.2 0.18 0.36 0.36 92 1008.1
20260506161957 15 203 4.8 8.0 0.30 0.33 0.33 91 1008.5
20260506161455 15 222 4.8 8.0 0.48 0.33 0.33 91 1008.8
20260506160952 15 213 4.8 11.3 0.36 0.30 0.30 91 1009.0
20260506160449 15 206 1.6 3.2 0.13 0.25 0.25 90 1009.2
20260506155946 15 197 4.8 9.7 0.30 0.25 0.25 90 1009.2
20260506155444 15 199 4.8 14.5 0.30 0.23 0.23 89 1009.2
20260506153611 16 193 3.2 8.0 0.13 0.15 0.15 88 1009.3
20260506153108 16 213 0.0 3.2 0.00 0.13 0.13 88 1009.2
20260506152605 16 233 0.0 0.0 0.18 0.13 0.13 88 1008.8
20260506152103 16 212 0.0 0.0 0.18 0.13 0.13 87 1009.2
20260506151601 16 201 6.4 11.3 0.13 0.10 0.10 87 1009.1
20260506151058 16 191 0.0 1.6 0.30 0.10 0.10 86 1009.2
20260506150554 16 214 0.0 1.6 0.18 0.08 0.08 86 1009.1
20260506150051 16 219 1.6 8.0 0.13 0.05 0.05 84 1009.3
20260506145548 16 218 4.8 8.0 0.30 0.05 0.05 82 1009.3
20260506145046 17 213 4.8 8.0 0.18 0.03 0.03 80 1009.5
20260506144542 17 248 3.2 4.8 0.00 0.00 0.00 78 1009.5
20260506144039 17 262 1.6 4.8 0.00 0.00 0.00 75 1009.3
20260506143537 17 200 6.4 11.3 0.00 0.00 0.00 74 1009.2
20260506143035 17 206 0.0 0.0 0.00 0.00 0.00 75 1009.2
20260506142533 17 204 4.8 4.8 0.00 0.00 0.00 76 1009.1
20260506142031 17 204 3.2 4.8 0.00 0.00 0.00 75 1009.3
20260506141528 17 212 4.8 8.0 0.00 0.00 0.00 76 1009.4
20260506141026 17 184 1.6 4.8 0.00 0.00 0.00 75 1009.2
20260506140523 17 261 1.6 3.2 0.00 0.00 0.00 75 1009.0
20260506140021 17 209 1.6 8.0 0.00 0.00 0.00 75 1009.0
20260506135517 17 247 1.6 4.8 0.00 0.00 0.00 75 1009.2
20260506135013 17 289 1.6 3.2 0.00 0.00 0.00 75 1009.1
20260506134509 17 181 6.4 14.5 0.00 0.00 0.00 74 1009.1
20260506134000 17 173 3.2 4.8 0.00 0.00 0.00 74 1009.3
20260506133458 17 197 3.2 8.0 0.00 0.00 0.00 74 1009.3
20260506132954 17 213 11.3 14.5 0.00 0.00 0.00 74 1009.4
20260506132451 17 186 8.0 14.5 0.00 0.00 0.00 74 1009.4
20260506131949 17 184 14.5 20.9 0.00 0.00 0.00 74 1009.5
20260506131445 17 184 4.8 12.9 0.00 0.00 0.00 74 1009.5
20260506130942 17 184 4.8 9.7 0.00 0.00 0.00 74 1009.5
20260506130439 17 196 4.8 9.7 0.00 0.00 0.00 74 1009.3
20260506125937 17 204 0.0 0.0 0.00 0.00 0.00 74 1009.2
20260506125435 17 191 0.0 1.6 0.00 0.00 0.00 75 1009.3
20260506124933 17 213 6.4 12.9 0.00 0.00 0.00 74 1009.1
20260506124430 17 201 0.0 0.0 0.00 0.00 0.00 75 1009.2
20260506123928 17 206 0.0 1.6 0.00 0.00 0.00 74 1009.1
20260506123426 17 212 1.6 3.2 0.00 0.00 0.00 74 1009.0
20260506122923 17 198 6.4 9.7 0.00 0.00 0.00 74 1009.0
20260506122419 17 218 9.7 14.5 0.00 0.00 0.00 74 1009.2
20260506121918 17 207 3.2 4.8 0.00 0.00 0.00 74 1009.1
20260506121414 17 205 6.4 11.3 0.00 0.00 0.00 74 1009.3
20260506120911 17 230 0.0 0.0 0.00 0.00 0.00 74 1009.3
20260506120409 17 180 3.2 3.2 0.00 0.00 0.00 74 1009.2
20260506115906 17 197 0.0 3.2 0.00 0.00 0.00 75 1009.2
20260506115404 17 246 6.4 9.7 0.00 0.00 0.00 75 1009.2
20260506114902 17 203 0.0 0.0 0.00 0.00 0.00 75 1009.2
20260506114359 17 189 6.4 9.7 0.00 0.00 0.00 75 1009.3
20260506113858 17 190 4.8 11.3 0.00 0.00 0.00 75 1009.5
20260506113355 17 197 3.2 4.8 0.00 0.00 0.00 75 1009.4
20260506112851 17 192 8.0 12.9 0.00 0.00 0.00 75 1009.4
20260506112349 17 233 4.8 4.8 0.00 0.00 0.00 75 1009.4
20260506111846 17 197 4.8 4.8 0.00 0.00 0.00 75 1009.3
20260506111344 17 203 1.6 3.2 0.00 0.00 0.00 75 1009.3
20260506110842 17 212 4.8 8.0 0.00 0.00 0.00 75 1009.3
20260506110338 17 206 0.0 0.0 0.00 0.00 0.00 76 1009.3
20260506105835 17 213 4.8 4.8 0.00 0.00 0.00 76 1009.2
20260506105332 17 165 1.6 1.6 0.00 0.00 0.00 76 1009.0
20260506104830 17 193 1.6 4.8 0.00 0.00 0.00 76 1009.0
20260506104327 17 222 4.8 9.7 0.00 0.00 0.00 76 1009.1
20260506103824 17 214 6.4 12.9 0.00 0.00 0.00 76 1009.0
20260506103322 17 211 3.2 11.3 0.00 0.00 0.00 76 1008.9
20260506102819 17 192 1.6 1.6 0.00 0.00 0.00 76 1009.1
20260506102317 17 189 1.6 3.2 0.00 0.00 0.00 76 1009.1
20260506101814 17 218 4.8 4.8 0.00 0.00 0.00 76 1009.0
20260506101310 17 180 6.4 9.7 0.00 0.00 0.00 76 1009.2
20260506100808 17 205 4.8 4.8 0.00 0.00 0.00 76 1008.9
20260506100306 17 162 1.6 1.6 0.00 0.00 0.00 76 1008.9
20260506095804 17 198 3.2 4.8 0.00 0.00 0.00 76 1008.9
20260506095301 17 204 1.6 3.2 0.00 0.00 0.00 76 1008.9
20260506094757 17 203 0.0 0.0 0.00 0.00 0.00 76 1009.0
20260506094256 17 194 0.0 1.6 0.00 0.00 0.00 76 1009.1
20260506093754 17 210 3.2 3.2 0.00 0.00 0.00 76 1008.9
20260506093251 17 207 3.2 4.8 0.00 0.00 0.00 76 1008.9
20260506092749 17 216 0.0 0.0 0.00 0.00 0.00 76 1008.8
20260506092246 17 195 0.0 0.0 0.00 0.00 0.00 76 1008.8
20260506091743 17 165 0.0 0.0 0.00 0.00 0.00 75 1009.0
20260506091241 17 201 8.0 11.3 0.00 0.00 0.00 75 1009.1
20260506090739 17 215 3.2 8.0 0.00 0.00 0.00 75 1009.0
20260506090235 17 214 4.8 9.7 0.00 0.00 0.00 76 1009.0
20260506085732 17 211 6.4 11.3 0.00 0.00 0.00 75 1009.1
20260506085228 17 202 4.8 8.0 0.00 0.00 0.00 75 1009.4
20260506084726 17 204 16.1 17.7 0.00 0.00 0.00 75 1009.2
20260506084221 17 226 1.6 3.2 0.00 0.00 0.00 75 1009.2
20260506083719 17 207 1.6 4.8 0.00 0.00 0.00 75 1009.1
20260506083216 17 210 0.0 1.6 0.00 0.00 0.00 74 1009.2
20260506082713 17 199 6.4 11.3 0.00 0.00 0.00 74 1009.6
20260506082209 17 178 0.0 0.0 0.00 0.00 0.00 73 1009.3
20260506081707 17 154 0.0 0.0 0.00 0.00 0.00 73 1009.3
20260506081204 17 185 0.0 0.0 0.00 0.00 0.00 72 1009.4
20260506080702 17 204 6.4 9.7 0.00 0.00 0.00 73 1009.3
20260506080158 17 190 1.6 1.6 0.00 0.00 0.00 71 1009.4
20260506073143 18 206 1.6 4.8 0.00 0.00 0.00 69 1009.4
20260506072638 18 214 1.6 4.8 0.00 0.00 0.00 68 1009.5
20260506072137 18 196 0.0 1.6 0.00 0.00 0.00 68 1009.4
20260506071634 18 216 1.6 3.2 0.00 0.00 0.00 67 1009.3
20260506071132 18 203 1.6 4.8 0.00 0.00 0.00 67 1009.5
20260506070628 18 211 4.8 11.3 0.00 0.00 0.00 67 1009.5
20260506070125 18 201 0.0 1.6 0.00 0.00 0.00 66 1009.2
20260506062103 18 264 0.0 3.2 0.00 0.00 0.00 63 1009.9
20260506061558 18 169 0.0 1.6 0.00 0.00 0.00 63 1009.8
20260506061056 18 200 0.0 1.6 0.00 0.00 0.00 63 1009.9
20260506060555 18 200 1.6 3.2 0.00 0.00 0.00 63 1009.9
20260506051024 18 201 0.0 0.0 0.00 0.00 0.00 61 1010.1
20260506050521 18 212 0.0 0.0 0.00 0.00 0.00 61 1010.3
20260506045012 18 195 0.0 0.0 0.00 0.00 0.00 61 1010.3
20260506044510 18 142 0.0 0.0 0.00 0.00 0.00 61 1010.4
20260506044006 19 217 1.6 3.2 0.00 0.00 0.00 61 1010.5
20260506043503 19 210 3.2 3.2 0.00 0.00 0.00 60 1010.4
20260506043002 19 219 0.0 0.0 0.00 0.00 0.00 60 1010.4
20260506042500 19 200 4.8 8.0 0.00 0.00 0.00 60 1010.4
20260506041957 19 224 0.0 1.6 0.00 0.00 0.00 60 1010.5
20260506041455 19 178 1.6 4.8 0.00 0.00 0.00 61 1010.4
20260506040952 19 191 0.0 1.6 0.00 0.00 0.00 60 1010.3
20260506040450 19 204 3.2 4.8 0.00 0.00 0.00 60 1010.3
20260506035946 19 211 0.0 1.6 0.00 0.00 0.00 60 1010.4
20260506035443 20 200 0.0 0.0 0.00 0.00 0.00 59 1010.3
20260506034939 20 223 1.6 3.2 0.00 0.00 0.00 59 1010.3
20260506034437 20 191 3.2 3.2 0.00 0.00 0.00 58 1010.6
20260506033934 20 205 1.6 3.2 0.00 0.00 0.00 58 1010.6
20260506033431 20 194 0.0 3.2 0.00 0.00 0.00 57 1010.3
20260506032928 20 197 4.8 4.8 0.00 0.00 0.00 57 1010.5
20260506032425 20 225 4.8 9.7 0.00 0.00 0.00 56 1010.1
20260506031921 20 202 4.8 4.8 0.00 0.00 0.00 55 1010.2
20260506031419 20 218 0.0 1.6 0.00 0.00 0.00 54 1010.3
20260506030916 20 193 3.2 3.2 0.00 0.00 0.00 53 1010.3
20260506030414 20 194 1.6 1.6 0.00 0.00 0.00 52 1010.2
20260506025911 21 202 3.2 3.2 0.00 0.00 0.00 51 1010.3
20260506025408 21 200 0.0 1.6 0.00 0.00 0.00 50 1010.3
20260506024904 21 185 1.6 9.7 0.00 0.00 0.00 50 1010.1
20260506024402 21 259 0.0 0.0 0.00 0.00 0.00 49 1010.2
20260506023857 21 209 11.3 14.5 0.00 0.00 0.00 48 1010.3
20260506023355 21 196 0.0 0.0 0.00 0.00 0.00 47 1010.1
20260506022851 21 196 4.8 8.0 0.00 0.00 0.00 47 1010.2
20260506022349 21 201 4.8 11.3 0.00 0.00 0.00 46 1010.1
20260506021847 21 225 0.0 1.6 0.00 0.00 0.00 46 1010.1
20260506021343 22 197 0.0 1.6 0.00 0.00 0.00 46 1010.1
20260506020840 22 170 1.6 4.8 0.00 0.00 0.00 45 1010.1
20260506020338 22 211 3.2 4.8 0.00 0.00 0.00 45 1009.9
20260506015835 22 215 9.7 12.9 0.00 0.00 0.00 45 1010.0
20260506015333 22 240 3.2 4.8 0.00 0.00 0.00 45 1009.8
20260506014829 22 167 3.2 4.8 0.00 0.00 0.00 45 1010.0
20260506014326 22 207 3.2 3.2 0.00 0.00 0.00 44 1009.7
20260506013823 22 197 4.8 9.7 0.00 0.00 0.00 45 1009.7
20260506013320 22 216 6.4 11.3 0.00 0.00 0.00 45 1009.5
20260506012817 22 237 4.8 11.3 0.00 0.00 0.00 45 1009.7
20260506012314 22 199 3.2 4.8 0.00 0.00 0.00 45 1009.7
20260506011811 22 207 4.8 4.8 0.00 0.00 0.00 45 1009.6
20260506011307 22 200 8.0 12.9 0.00 0.00 0.00 45 1009.6
20260506010805 22 156 6.4 12.9 0.00 0.00 0.00 45 1009.4
20260506010303 22 207 3.2 4.8 0.00 0.00 0.00 45 1009.3
20260506005759 22 188 3.2 4.8 0.00 0.00 0.00 44 1009.5
20260506005256 22 207 3.2 3.2 0.00 0.00 0.00 44 1009.2
20260506004752 22 221 6.4 11.3 0.00 0.00 0.00 43 1009.2
20260506004250 23 198 1.6 3.2 0.00 0.00 0.00 42 1009.1
20260506003745 23 171 6.4 11.3 0.00 0.00 0.00 41 1009.2
20260506003242 23 166 1.6 4.8 0.00 0.00 0.00 41 1009.1
20260506002739 23 209 0.0 1.6 0.00 0.00 0.00 40 1009.1
20260506002235 23 204 3.2 4.8 0.00 0.00 0.00 39 1009.1
20260506001730 23 207 8.0 9.7 0.00 0.00 0.00 39 1008.8
20260506001229 23 184 3.2 4.8 0.00 0.00 0.00 38 1009.1
20260506000725 23 207 3.2 4.8 0.00 0.00 0.00 38 1008.8
20260506000223 23 212 4.8 9.7 0.00 0.00 0.00 38 1008.9
20260505235720 23 212 6.4 14.5 0.00 0.00 0.00 38 1009.0
20260505235218 24 214 3.2 3.2 0.00 0.00 0.00 37 1008.8
20260505234714 24 212 9.7 17.7 0.00 0.00 0.00 37 1008.6
20260505234212 24 205 3.2 4.8 0.00 0.00 0.00 37 1008.8
20260505233708 24 206 6.4 9.7 0.00 0.00 0.00 37 1008.9
20260505233206 24 188 8.0 16.1 0.00 0.00 0.00 36 1008.7
20260505232703 25 152 0.0 1.6 0.00 0.00 0.00 36 1008.8
20260505232200 25 177 4.8 4.8 0.00 0.00 0.00 35 1008.6